#timestamp,LO_Frequency,Hit,StdDev 
1657458015.5,286047000.5,N
1657458035.3,286047000.9,N
1657458055.1,286047000.5,N
1657458075.9,286047000.6,N
1657458095.7,286047000.6,N
1657458115.5,286047001.0,N
1657458135.4,286047001.1,N
1657458155.2,286047000.7,N
1657458175.0,286047000.3,N
1657458176.0,286047000.3,N
1657458195.8,286047002.7,N
1657458215.6,286047000.0,N
1657458235.5,286046999.9,N
1657458255.3,286047000.4,N
1657458275.1,286047000.1,N
1657458295.9,286046999.9,N
1657458315.7,286046999.9,N
1657458335.6,286047002.0,N
1657458355.4,286047002.8,N
1657458375.2,286046999.9,N
1657458395.1,286046999.7,N
1657458396.0,286046999.7,N
1657458415.8,286047002.7,N
1657458435.7,286047000.5,N
1657458455.5,286047000.9,N
1657458475.3,286047002.4,N
1657458495.2,286047000.2,N
1657458515.0,286047000.3,N
1657458515.9,286047000.3,N
1657458535.7,286047000.1,N
1657458555.6,286046999.9,N
1657458575.4,286047002.7,N
1657458595.3,286047000.5,N
1657458615.1,286047000.2,N
1657458616.0,286047000.2,N
1657458635.8,286047000.9,N
1657458655.7,286047002.3,N
1657458675.5,286046999.8,N
1657458695.4,286047002.1,N
1657458715.2,286047002.8,N
1657458735.0,286047000.4,N
1657458735.9,286047000.4,N
1657458755.8,286047000.7,N
1657458805.6,286047001.1,E
1657458815.6,286046998.2,N
1657458835.4,286046998.3,P
1657458855.2,286046998.7,P
1657458875.1,286046998.1,Y
1657458876.0,286046998.1,P
1657458895.8,286047002.8,P
1657458915.6,286047002.8,N
1657458935.5,286047000.6,N
1657458955.3,286047000.1,N
1657458975.2,286046999.7,N
1657458995.9,286047002.8,N
1657459015.7,286046999.7,N
1657459035.6,286047002.3,N
1657459055.4,286047001.9,N
1657459075.2,286047001.8,N
1657459095.1,286047004.0,N
1657459096.0,286047004.0,N
1657459115.8,286047002.4,N
1657459135.7,286046999.8,N
1657459155.5,286046999.7,N
1657459175.3,286047001.6,N
1657459195.2,286047001.3,N
1657459215.0,286047001.4,N
1657459215.9,286047001.4,N
1657459235.7,286047001.8,N
1657459255.6,286047001.5,N
1657459275.4,286047004.0,N
1657459295.3,286047003.5,N
1657459315.1,286047004.1,N
1657459316.0,286047004.1,N
1657459335.8,286047003.2,N
1657459355.7,286047004.3,N
1657459375.5,286047001.5,N
1657459395.3,286047002.1,N
1657459415.2,286047003.2,N
1657459435.0,286047004.0,N
1657459435.9,286047004.0,N
1657459455.8,286047003.5,N
1657459475.6,286047004.3,N
1657459495.4,286047003.6,N
1657459515.3,286047002.9,N
1657459535.1,286047003.0,N
1657459555.8,286047003.4,N
1657459575.7,286047004.3,Y
1657459595.5,286047000.6,P
1657459615.4,286047000.0,N
1657459635.2,286046999.9,N
1657459655.0,286047000.4,N
1657459655.9,286047000.4,N
1657459675.8,286047000.5,N
1657459695.6,286046999.9,N
1657459715.5,286046999.7,N
1657459735.3,286047002.4,N
1657459755.1,286047001.6,N
1657459775.9,286047001.3,N
1657459795.7,286047001.5,N
1657459815.5,286047002.1,N
1657459835.4,286047002.0,N
1657459855.2,286047002.0,N
1657459875.1,286047002.3,N
1657459876.0,286047002.3,N
1657459895.8,286047002.0,N
1657459915.6,286047002.2,N
1657459935.5,286047002.2,N
1657459955.3,286047002.4,N
1657459975.1,286047002.4,N
1657459995.9,286047001.9,N
1657460015.7,286047001.6,N
1657460035.6,286047001.8,N
1657460055.4,286047001.8,N
1657460075.2,286047004.2,Y
1657460095.1,286046999.9,P
1657460096.0,286046999.9,N
1657460115.8,286047000.3,N
1657460135.6,286046999.7,N
1657460155.5,286046999.7,N
1657460175.3,286046999.8,N
1657460195.2,286047000.4,N
1657460215.9,286047002.4,Y
1657460235.7,286047002.4,P
1657460255.6,286046999.8,N
1657460275.4,286047002.2,N
1657460295.2,286046999.7,N
1657460315.1,286047002.7,N
1657460316.0,286047002.7,N
1657460335.8,286047001.6,N
1657460355.7,286047002.6,N
1657460375.5,286047000.6,N
1657460395.3,286046998.5,N
1657460415.2,286047000.7,N
1657460435.9,286046998.1,N
1657460455.7,286047000.6,N
1657460475.6,286047001.1,N
1657460495.4,286046998.5,N
1657460515.2,286047000.5,N
1657460535.1,286047000.4,N
1657460536.0,286047000.4,N
1657460555.8,286047002.8,N
1657460575.7,286047002.1,N
1657460595.5,286047004.4,Y
1657460615.3,286047000.5,P
1657460635.2,286047002.4,P
1657460655.0,286047002.7,P
1657460655.9,286047002.7,N
1657460675.8,286047002.7,N
1657460695.6,286047002.0,N
1657460715.4,286047000.7,N
1657460735.3,286047000.0,N
1657460755.1,286047002.7,N
1657460756.0,286047002.7,N
1657460775.8,286047001.9,N
1657460795.7,286047000.1,N
1657460815.5,286047000.1,N
1657460835.3,286047000.5,N
1657460855.2,286046998.1,N
1657460875.0,286046998.2,N
1657460875.9,286046998.2,N
1657460895.8,286047000.7,N
1657460915.6,286046996.5,N
1657460935.4,286046999.4,N
1657460955.3,286046999.6,N
1657460975.1,286046997.3,N
1657460995.8,286046996.7,N
1657461015.7,286046999.4,N
1657461035.5,286046999.3,N
1657461055.4,286046998.9,N
1657461075.2,286046998.8,N
1657461095.0,286046999.6,N
1657461095.9,286046999.6,N
1657461115.8,286046996.9,N
1657461135.6,286046997.0,N
1657461155.4,286046998.8,N
1657461175.3,286046999.5,N
1657461195.1,286046999.2,N
1657461215.9,286046999.2,N
1657461235.7,286046996.9,N
1657461255.5,286046994.9,Y
1657461275.4,286046998.0,P
1657461295.2,286046995.0,P
1657461315.0,286046997.4,N
1657461315.9,286046997.4,N
1657461335.8,286046997.9,N
1657461355.6,286046995.4,Y
1657461375.5,286046996.9,P
1657461395.3,286046997.7,P
1657461415.1,286046997.7,P
1657461435.9,286046999.6,N
1657461455.7,286046997.8,N
1657461475.5,286046999.1,N
1657461495.4,286046996.5,Y
1657461515.2,286047000.3,P
1657461535.1,286047000.9,N
1657461536.0,286047000.9,N
1657461555.8,286046999.7,N
1657461575.6,286047001.0,N
1657461595.5,286047000.8,N
